CW3684 Weather Reports


time (UTC)temp
F
wind
direction
speed
knots
gust
knots
rain 1hr
in
rain 24hr
in
rain mn
in
humidity
%
barometer
mb
20260507101558 37 129 12.2 19.1 0.00 0.00 0.00 75 1012.6
20260507100108 37 146 11.3 19.1 0.00 0.00 0.00 74 1012.4
20260507094553 37 150 12.2 20.0 0.00 0.00 0.00 74 1012.4
20260507093051 38 136 12.2 17.4 0.00 0.00 0.00 73 1012.2
20260507091548 38 134 9.6 14.8 0.00 0.00 0.00 73 1012.2
20260507090055 38 103 11.3 18.2 0.00 0.00 0.00 73 1012.1
20260507084549 38 153 13.9 20.0 0.00 0.00 0.00 73 1011.9
20260507083045 38 113 13.9 23.5 0.00 0.00 0.00 74 1011.8
20260507081541 38 128 18.2 24.3 0.00 0.00 0.00 74 1011.7
20260507080042 38 117 13.9 22.6 0.00 0.00 0.00 75 1011.6
20260507074535 38 106 15.6 23.5 0.00 0.00 0.00 75 1011.5
20260507073039 38 140 15.6 23.5 0.00 0.00 0.00 75 1011.4
20260507071533 38 157 15.6 26.9 0.00 0.00 0.00 74 1011.3
20260507070046 38 133 16.5 23.5 0.00 0.00 0.00 74 1011.1
20260507064530 38 92 15.6 26.1 0.00 0.00 0.00 75 1011.0
20260507063029 39 135 13.9 23.5 0.00 0.00 0.00 74 1010.9
20260507061528 39 127 17.4 23.5 0.00 0.00 0.00 73 1010.7
20260507060028 39 132 14.8 22.6 0.00 0.00 0.00 70 1010.6
20260507054526 40 115 15.6 27.8 0.00 0.00 0.00 68 1010.6
20260507053026 40 159 18.2 24.3 0.00 0.00 0.00 67 1010.5
20260507051525 41 127 13.0 24.3 0.00 0.00 0.00 66 1010.4
20260507050038 41 132 14.8 26.1 0.00 0.00 0.00 65 1010.4
20260507044523 42 84 15.6 25.2 0.00 0.00 0.00 63 1010.2
20260507043021 42 78 15.6 26.9 0.00 0.00 0.00 64 1010.0
20260507041519 42 94 15.6 30.4 0.00 0.00 0.00 62 1009.8
20260507040018 43 167 17.4 24.3 0.00 0.00 0.00 60 1009.9
20260507034520 43 144 17.4 30.4 0.00 0.00 0.00 60 1009.6
20260507033017 43 111 11.3 26.1 0.00 0.00 0.00 61 1009.5
20260507031514 43 146 14.8 26.9 0.00 0.00 0.00 62 1009.3
20260507030016 44 173 18.2 27.8 0.00 0.00 0.00 60 1009.1
20260507024511 44 117 18.2 30.4 0.00 0.00 0.00 59 1009.0
20260507023009 45 180 11.3 23.5 0.00 0.00 0.00 59 1008.7
20260507021508 45 153 12.2 24.3 0.00 0.00 0.00 60 1008.6
20260507020008 45 128 20.0 26.1 0.00 0.00 0.00 59 1008.4
20260507014507 46 121 19.1 27.8 0.00 0.00 0.00 57 1008.4
20260507013005 47 128 16.5 26.9 0.00 0.00 0.00 58 1008.4
20260507011504 48 100 19.1 24.3 0.00 0.00 0.00 54 1008.4
20260507010004 49 30 15.6 28.7 0.00 0.00 0.00 54 1008.1
20260507004504 48 140 16.5 25.2 0.00 0.00 0.00 52 1008.2
20260507003001 49 139 15.6 23.5 0.00 0.00 0.00 50 1008.2
20260507001607 50 74 12.2 20.9 0.00 0.00 0.00 53 1008.1
20260507000124 49 134 13.9 22.6 0.00 0.00 0.00 53 1008.2
20260506234621 48 115 15.6 22.6 0.00 0.00 0.00 55 1008.2
20260506233058 49 141 13.9 20.9 0.00 0.00 0.00 56 1007.9
20260506231557 50 135 13.9 21.7 0.00 0.00 0.00 54 1008.0
20260506224556 50 125 14.8 25.2 0.00 0.00 0.00 52 1008.1
20260506223051 49 146 13.0 21.7 0.00 0.00 0.00 57 1008.0
20260506221559 49 155 14.8 23.5 0.00 0.00 0.00 57 1008.1
20260506220049 49 142 13.9 20.9 0.00 0.00 0.00 54 1008.2
20260506214548 48 153 20.0 27.8 0.00 0.00 0.00 53 1008.1
20260506213053 49 139 21.7 27.8 0.00 0.00 0.00 55 1008.0
20260506211551 49 175 14.8 26.1 0.00 0.00 0.00 58 1008.1
20260506210046 49 181 15.6 22.6 0.00 0.00 0.00 60 1008.0
20260506204537 47 104 13.0 23.5 0.00 0.00 0.00 66 1008.2
20260506203034 45 109 9.6 19.1 0.00 0.00 0.00 70 1008.2
20260506201536 43 141 13.0 19.1 0.00 0.00 0.00 78 1008.3
20260506200030 42 128 9.6 14.8 0.00 0.00 0.00 80 1008.3
20260506194524 41 138 12.2 18.2 0.00 0.00 0.00 81 1008.4
20260506193032 42 139 7.8 17.4 0.00 0.00 0.00 82 1008.4
20260506191519 41 143 11.3 16.5 0.00 0.00 0.00 82 1008.3
20260506190016 40 114 6.1 9.6 0.00 0.00 0.00 84 1008.4
20260506184512 40 148 5.2 12.2 0.00 0.00 0.00 84 1008.4
20260506183006 39 146 4.3 9.6 0.00 0.00 0.00 85 1008.3
20260506181517 39 241 4.3 12.2 0.00 0.00 0.00 84 1008.3
20260506180005 39 164 4.3 13.0 0.00 0.00 0.00 84 1008.3
20260506174502 39 173 5.2 11.3 0.00 0.00 0.00 86 1008.2
20260506173127 38 173 4.3 13.9 0.00 0.00 0.00 86 1008.3
20260506171701 38 146 8.7 15.6 0.00 0.00 0.00 86 1008.1
20260506170107 39 131 12.2 19.1 0.00 0.00 0.00 84 1008.0
20260506164554 39 86 10.4 20.0 0.00 0.00 0.00 83 1007.7
20260506163058 39 168 13.0 19.1 0.00 0.00 0.00 83 1007.7
20260506161550 38 142 12.2 20.0 0.00 0.00 0.00 83 1007.6
20260506160049 38 138 13.0 20.0 0.00 0.00 0.00 83 1007.6
20260506154606 38 132 10.4 16.5 0.00 0.00 0.00 84 1007.5
20260506153046 38 131 11.3 19.1 0.00 0.00 0.00 84 1007.5
20260506151543 37 127 11.3 17.4 0.00 0.00 0.00 84 1007.5
20260506150039 37 140 11.3 16.5 0.00 0.00 0.00 83 1007.3
20260506144544 37 134 11.3 20.0 0.00 0.00 0.00 83 1007.5
20260506143037 37 141 13.9 18.2 0.00 0.00 0.00 83 1007.3
20260506141534 37 136 15.6 20.0 0.00 0.00 0.00 83 1007.1
20260506140035 37 105 17.4 23.5 0.00 0.00 0.00 82 1007.1
20260506134529 37 123 17.4 26.1 0.00 0.00 0.00 81 1006.7
20260506133025 38 98 15.6 25.2 0.00 0.00 0.00 80 1006.7
20260506131524 38 155 13.0 20.9 0.00 0.00 0.00 80 1006.6
20260506130025 38 146 7.8 13.9 0.00 0.00 0.00 79 1006.7
20260506124521 38 99 10.4 17.4 0.00 0.00 0.00 79 1006.5
20260506123020 38 132 13.9 23.5 0.00 0.00 0.00 79 1006.4
20260506121516 38 136 11.3 18.2 0.00 0.00 0.00 78 1006.4
20260506120014 38 140 8.7 15.6 0.00 0.00 0.00 78 1006.3
20260506114512 38 186 7.8 16.5 0.00 0.01 0.00 78 1006.5
20260506113011 38 156 13.9 20.9 0.00 0.01 0.00 78 1006.3
20260506111511 38 128 13.9 20.9 0.00 0.01 0.00 79 1006.2
20260506110006 38 156 13.0 20.0 0.00 0.01 0.00 78 1006.2
20260506104515 38 143 11.3 18.2 0.00 0.01 0.00 79 1006.3
20260506103007 38 142 8.7 14.8 0.00 0.01 0.00 79 1006.3